This demonstration page uses our WeatherBlox Daily Observations layout. Learn more.

Left ArrowRight Arrow

38.88101, -77.10428

Hourly Observations for February 14, 2021

Temp ( °F °C ) Dew Point ( °F °C ) Humidity (%) Winds ( mph kmh ) Pressure ( in mb ) Visibility ( mi km ) Precip ( " mm )
12:52 am 00:52 Cloudy 29 -1.7 26 -3.3 89 89 NNE 9 15 30.18 1022 8 13 0.00 0.00
1:35 am 01:35 Cloudy 29 -1.7 27 -2.8 92 92 N 8 13 30.18 1022 7 11 0.00 0.00
1:52 am 01:52 Cloudy with Mist and Fog 29 -1.7 27 -2.8 92 92 N 8 13 30.18 1022 6 10 0.00 0.00
2:05 am 02:05 Cloudy with Mist and Fog 29 -1.7 27 -2.8 92 92 N 9 15 30.18 1022 6 10 0.00 0.00
2:30 am 02:30 Cloudy with Mist and Fog 29 -1.7 27 -2.8 92 92 NNW 8 13 30.19 1022 6 10 0.00 0.00
2:52 am 02:52 Cloudy with Mist and Fog 29 -1.7 27 -2.8 92 92 NNW 8 13 30.19 1022 6 10 0.00 0.00
3:52 am 03:52 Cloudy with Mist and Fog 29 -1.7 27 -2.8 92 92 NNW 9 15 30.18 1022 5 8 0.00 0.00
4:52 am 04:52 Cloudy with Mist and Fog 30 -1.1 27 -2.8 88 88 NNW 8 13 30.20 1023 6 10 0.00 0.00
5:52 am 05:52 Cloudy with Light Snow 30 -1.1 28 -2.2 92 92 N 9 15 30.21 1023 5 8 0.00 0.00
6:52 am 06:52 Cloudy with Mist and Fog 30 -1.1 28 -2.2 92 92 NNW 8 13 30.24 1024 5 8 0.00 0.00
7:11 am 07:11 Cloudy with Light Freezing Drizzle 30 -1.1 28 -2.2 92 92 NNW 6 9 30.25 1025 4 6 0.00 0.00
7:37 am 07:37 Cloudy with Light Freezing Drizzle 30 -1.1 28 -2.2 92 92 NNW 8 13 30.25 1025 3 5 0.00 0.00
7:52 am 07:52 Cloudy with Light Freezing Drizzle 31 -0.6 28 -2.2 89 89 N 9 15 30.24 1024 3 5 0.00 0.00
8:21 am 08:21 Cloudy with Mist and Fog 31 -0.6 28 -2.2 89 89 N 7 11 30.26 1025 4 6 0.00 0.00
8:24 am 08:24 Cloudy with Mist and Fog 31 -0.6 28 -2.2 89 89 N 6 9 30.26 1025 4 6 0.00 0.00
8:52 am 08:52 Cloudy with Mist and Fog 31 -0.6 28 -2.2 89 89 NNW 7 11 30.27 1025 4 6 0.00 0.00
9:52 am 09:52 Cloudy with Mist and Fog 32 0 29 -1.7 88 88 N 7 11 30.28 1025 4 6 0.00 0.00
10:52 am 10:52 Cloudy with Mist and Fog 33 0.6 30 -1.1 89 89 N 7 11 30.29 1026 4 6 0.00 0.00
11:52 am 11:52 Cloudy with Mist and Fog 35 1.7 31 -0.6 85 85 N 9 15 30.27 1025 5 8 0.00 0.00
12:52 pm 12:52 Cloudy 36 2.2 31 -0.6 82 82 N 9 15 30.25 1025 8 13 0.00 0.00
1:35 pm 13:35 Cloudy 37 2.8 32 0 82 82 N 8 13 30.24 1024 8 13 0.00 0.00
1:52 pm 13:52 Cloudy 37 2.8 32 0 82 82 N 8 13 30.24 1024 8 13 0.00 0.00
2:52 pm 14:52 Cloudy 38 3.3 32 0 79 79 N 8 13 30.23 1024 10 16 0.00 0.00
3:52 pm 15:52 Cloudy 38 3.3 30 -1.1 73 73 N 12 19 30.23 1024 10 16 0.00 0.00
4:52 pm 16:52 Cloudy 38 3.3 29 -1.7 70 70 N 7 11 30.23 1024 10 16 0.00 0.00
5:52 pm 17:52 Cloudy 37 2.8 30 -1.1 76 76 N 7 11 30.24 1024 10 16 0.00 0.00
6:52 pm 18:52 Cloudy 38 3.3 29 -1.7 70 70 NNE 9 15 30.26 1025 10 16 0.00 0.00
7:52 pm 19:52 Cloudy 37 2.8 28 -2.2 70 70 NNE 9 15 30.24 1024 8 13 0.00 0.00
8:52 pm 20:52 Cloudy 37 2.8 30 -1.1 76 76 NE 5 7 30.24 1024 8 13 0.00 0.00
9:52 pm 21:52 Cloudy with Mist and Fog 36 2.2 32 0 86 86 ENE 6 9 30.24 1024 6 10 0.00 0.00
10:52 pm 22:52 Cloudy with Haze 36 2.2 31 -0.6 82 82 NE 7 11 30.22 1023 6 10 0.00 0.00
11:52 pm 23:52 Cloudy 37 2.8 29 -1.7 73 73 N 10 17 30.22 1024 8 13 0.00 0.00

Powered by AerisWeather